CFG3232 LGAV-LGKR

Flight info

Callsign CFG3232
Flight time 0h 42m
Altitude 32000
Route KOR UL53 PARNA
Aircraft A339/H-SADE1E2E3GHIJ3J5M1P2RWXY/LB2D1

Departure

Time 2026-05-05 18:42
Airport Athens Eleftherios Venizelos International Airport (LGAV)

Arrival

Time 2026-05-05 19:24
Airport Corfu Ioannis Kapodistrias International Airport (LGKR)
Time Latitude Longitude Altitude Speed Heading
2026-05-05 18:05 37.94045 23.95251 286 ft 0 kts 37°
2026-05-05 18:31 37.94042 23.95249 287 ft 1 kts 37°
2026-05-05 18:31 37.94036 23.95243 288 ft 2 kts 37°
2026-05-05 18:31 37.94027 23.95234 288 ft 2 kts 37°
2026-05-05 18:31 37.94017 23.95225 292 ft 2 kts 44°
2026-05-05 18:32 37.94006 23.95211 290 ft 2 kts 54°
2026-05-05 18:32 37.93997 23.95197 293 ft 1 kts 93°
2026-05-05 18:32 37.93996 23.95189 292 ft 1 kts 109°
2026-05-05 18:32 37.93998 23.95181 293 ft 1 kts 111°
2026-05-05 18:33 37.94003 23.95163 296 ft 2 kts 124°
2026-05-05 18:33 37.94004 23.95161 296 ft 0 kts 127°
2026-05-05 18:36 37.93977 23.95206 288 ft 11 kts 126°
2026-05-05 18:36 37.93952 23.95250 286 ft 10 kts 126°
2026-05-05 18:36 37.93896 23.95348 285 ft 10 kts 128°
2026-05-05 18:36 37.93866 23.95395 289 ft 5 kts 128°
2026-05-05 18:37 37.93831 23.95425 285 ft 6 kts 165°
2026-05-05 18:37 37.93788 23.95407 285 ft 7 kts 204°
2026-05-05 18:37 37.93735 23.95366 289 ft 17 kts 214°
2026-05-05 18:37 37.93604 23.95236 287 ft 23 kts 218°
2026-05-05 18:38 37.93476 23.95115 294 ft 23 kts 217°
2026-05-05 18:38 37.93350 23.94993 295 ft 23 kts 217°
2026-05-05 18:38 37.93224 23.94872 295 ft 23 kts 218°
2026-05-05 18:38 37.93085 23.94743 294 ft 26 kts 216°
2026-05-05 18:39 37.92935 23.94604 298 ft 29 kts 217°
2026-05-05 18:39 37.92748 23.94424 299 ft 18 kts 218°
2026-05-05 18:39 37.92719 23.94395 302 ft 8 kts 219°
2026-05-05 18:39 37.92592 23.94272 302 ft 36 kts 216°
2026-05-05 18:40 37.92444 23.94174 301 ft 17 kts 172°
2026-05-05 18:40 37.92424 23.94191 304 ft 1 kts 133°
2026-05-05 18:40 37.92417 23.94208 301 ft 5 kts 119°
2026-05-05 18:40 37.92414 23.94223 299 ft 0 kts 108°
2026-05-05 18:41 37.92414 23.94224 299 ft 1 kts 107°
2026-05-05 18:41 37.92438 23.94407 301 ft 18 kts 56°
2026-05-05 18:41 37.92484 23.94456 301 ft 7 kts 35°
2026-05-05 18:42 37.92617 23.94578 301 ft 61 kts 36°
2026-05-05 18:42 37.93194 23.95122 292 ft 142 kts 36°
2026-05-05 18:42 37.94127 23.95974 602 ft 176 kts 34°
2026-05-05 18:42 37.95178 23.96959 1231 ft 193 kts 35°
2026-05-05 18:43 37.96232 23.97945 2264 ft 186 kts 35°
2026-05-05 18:43 37.97308 23.98964 2916 ft 200 kts 35°
2026-05-05 18:43 37.98464 24.00073 3405 ft 218 kts 35°
2026-05-05 18:43 37.99720 24.01280 3837 ft 235 kts 35°
2026-05-05 18:44 38.01173 24.02306 4339 ft 243 kts 13°
2026-05-05 18:44 38.02835 24.02294 5144 ft 240 kts 343°
2026-05-05 18:44 38.04269 24.01218 5891 ft 245 kts 315°
2026-05-05 18:44 38.05145 23.99343 6564 ft 253 kts 289°
2026-05-05 18:45 38.05271 23.97124 7212 ft 262 kts 264°
2026-05-05 18:45 38.04591 23.94943 7821 ft 272 kts 238°
2026-05-05 18:45 38.03190 23.93295 8495 ft 280 kts 212°
2026-05-05 18:45 38.01425 23.92206 9148 ft 285 kts 205°
2026-05-05 18:46 37.99632 23.91095 9822 ft 288 kts 210°
2026-05-05 18:46 37.97913 23.89757 10467 ft 291 kts 216°
2026-05-05 18:46 37.96357 23.88036 10731 ft 306 kts 235°
2026-05-05 18:46 37.95375 23.85598 10918 ft 319 kts 258°
2026-05-05 18:47 37.95191 23.82759 11110 ft 330 kts 280°
2026-05-05 18:47 37.95804 23.79973 11481 ft 336 kts 295°
2026-05-05 18:47 37.96713 23.77240 12121 ft 337 kts 296°
2026-05-05 18:47 37.97597 23.74461 12706 ft 341 kts 294°
2026-05-05 18:48 37.98396 23.71604 13292 ft 346 kts 291°
2026-05-05 18:48 37.99125 23.68679 13931 ft 349 kts 290°
2026-05-05 18:48 37.99817 23.65729 14531 ft 349 kts 289°
2026-05-05 18:48 38.00493 23.62770 15154 ft 350 kts 289°
2026-05-05 18:49 38.01168 23.59794 15767 ft 351 kts 289°
2026-05-05 18:49 38.01845 23.56816 16361 ft 352 kts 289°
2026-05-05 18:49 38.02523 23.53830 16960 ft 353 kts 289°
2026-05-05 18:49 38.03200 23.50862 17541 ft 354 kts 289°
2026-05-05 18:50 38.03886 23.47855 18127 ft 356 kts 289°
2026-05-05 18:50 38.04572 23.44832 18666 ft 357 kts 289°
2026-05-05 18:50 38.05260 23.41795 19169 ft 360 kts 289°
2026-05-05 18:50 38.05951 23.38742 19703 ft 360 kts 289°
2026-05-05 18:51 38.06646 23.35685 20217 ft 362 kts 289°
2026-05-05 18:51 38.07343 23.32601 20664 ft 365 kts 289°
2026-05-05 18:51 38.08046 23.29496 21210 ft 366 kts 289°
2026-05-05 18:51 38.08751 23.26381 21684 ft 369 kts 289°
2026-05-05 18:52 38.09449 23.23295 22269 ft 368 kts 289°
2026-05-05 18:52 38.10154 23.20149 22736 ft 372 kts 289°
2026-05-05 18:52 38.10866 23.16984 23262 ft 374 kts 289°
2026-05-05 18:52 38.11582 23.13803 23772 ft 376 kts 289°
2026-05-05 18:53 38.12299 23.10605 24206 ft 377 kts 289°
2026-05-05 18:53 38.13020 23.07382 24567 ft 381 kts 289°
2026-05-05 18:53 38.13743 23.04138 25045 ft 382 kts 289°
2026-05-05 18:53 38.14470 23.00885 25482 ft 384 kts 289°
2026-05-05 18:54 38.15201 22.97616 25906 ft 386 kts 289°
2026-05-05 18:54 38.15935 22.94329 26351 ft 387 kts 289°
2026-05-05 18:54 38.16670 22.91022 26782 ft 389 kts 289°
2026-05-05 18:54 38.17404 22.87714 27205 ft 391 kts 289°
2026-05-05 18:55 38.18144 22.84368 27614 ft 392 kts 289°
2026-05-05 18:55 38.18879 22.81021 28067 ft 393 kts 289°
2026-05-05 18:55 38.19613 22.77683 28604 ft 392 kts 289°
2026-05-05 18:55 38.20355 22.74322 28894 ft 396 kts 289°
2026-05-05 18:56 38.21092 22.70992 29296 ft 397 kts 289°
2026-05-05 18:56 38.21841 22.67605 29688 ft 399 kts 289°
2026-05-05 18:56 38.22589 22.64202 30076 ft 400 kts 289°
2026-05-05 18:56 38.23339 22.60775 30419 ft 402 kts 289°
2026-05-05 18:57 38.24091 22.57339 30759 ft 404 kts 289°
2026-05-05 18:57 38.24847 22.53888 31089 ft 406 kts 290°
2026-05-05 18:57 38.25607 22.50420 31418 ft 408 kts 290°
2026-05-05 18:57 38.26364 22.46941 31730 ft 410 kts 290°
2026-05-05 18:58 38.27127 22.43429 31999 ft 413 kts 290°
2026-05-05 18:58 38.27896 22.39887 32099 ft 419 kts 290°
2026-05-05 18:58 38.29471 22.32637 32100 ft 428 kts 290°
2026-05-05 18:59 38.31195 22.25416 32108 ft 424 kts 295°
2026-05-05 18:59 38.33873 22.18833 32114 ft 419 kts 306°
2026-05-05 19:00 38.37176 22.12745 32109 ft 417 kts 307°
2026-05-05 19:00 38.40478 22.06596 32124 ft 420 kts 306°
2026-05-05 19:01 38.43779 22.00450 32120 ft 421 kts 306°
2026-05-05 19:01 38.47060 21.94321 32123 ft 420 kts 306°
2026-05-05 19:02 38.50358 21.88155 32124 ft 420 kts 306°
2026-05-05 19:02 38.53654 21.81989 32123 ft 421 kts 306°
2026-05-05 19:03 38.56964 21.75783 32128 ft 426 kts 306°
2026-05-05 19:03 38.59730 21.70588 32131 ft 423 kts 306°
2026-05-05 19:04 38.63056 21.64337 32126 ft 425 kts 306°
2026-05-05 19:04 38.66373 21.58075 32128 ft 425 kts 305°
2026-05-05 19:05 38.69675 21.51833 32124 ft 424 kts 305°
2026-05-05 19:05 38.72981 21.45580 32127 ft 424 kts 305°
2026-05-05 19:06 38.76277 21.39315 32128 ft 424 kts 305°
2026-05-05 19:06 38.79577 21.33049 32128 ft 424 kts 305°
2026-05-05 19:07 38.82858 21.26800 32130 ft 424 kts 305°
2026-05-05 19:07 38.86163 21.20506 32128 ft 424 kts 305°
2026-05-05 19:08 38.89455 21.14215 32128 ft 425 kts 305°
2026-05-05 19:08 38.92772 21.07862 32128 ft 429 kts 304°
2026-05-05 19:09 38.96089 21.01485 32130 ft 429 kts 304°
2026-05-05 19:09 38.99386 20.95142 31846 ft 424 kts 304°
2026-05-05 19:10 39.01027 20.91984 30911 ft 427 kts 304°
2026-05-05 19:10 39.02672 20.88820 29497 ft 435 kts 304°
2026-05-05 19:10 39.04349 20.85577 28315 ft 434 kts 304°
2026-05-05 19:10 39.06015 20.82349 27497 ft 429 kts 304°
2026-05-05 19:11 39.07654 20.79177 26778 ft 423 kts 304°
2026-05-05 19:11 39.09282 20.76023 25903 ft 422 kts 304°
2026-05-05 19:11 39.10905 20.72877 24934 ft 417 kts 304°
2026-05-05 19:11 39.12504 20.69771 23768 ft 415 kts 304°
2026-05-05 19:12 39.14092 20.66689 22498 ft 410 kts 304°
2026-05-05 19:12 39.15659 20.63643 21361 ft 403 kts 304°
2026-05-05 19:12 39.17179 20.60688 20236 ft 398 kts 304°
2026-05-05 19:12 39.18713 20.57700 19106 ft 393 kts 304°
2026-05-05 19:13 39.20212 20.54779 17942 ft 388 kts 304°
2026-05-05 19:13 39.21692 20.51887 16648 ft 385 kts 304°
2026-05-05 19:13 39.23162 20.49020 15373 ft 382 kts 304°
2026-05-05 19:13 39.24626 20.46173 14115 ft 379 kts 304°
2026-05-05 19:14 39.26256 20.43506 12828 ft 376 kts 312°
2026-05-05 19:14 39.28096 20.41199 11660 ft 370 kts 319°
2026-05-05 19:14 39.30111 20.39181 10532 ft 364 kts 323°
2026-05-05 19:14 39.32092 20.37248 9971 ft 345 kts 322°
2026-05-05 19:15 39.33946 20.35415 9756 ft 326 kts 322°
2026-05-05 19:15 39.35692 20.33682 9565 ft 307 kts 322°
2026-05-05 19:15 39.37292 20.31970 9305 ft 291 kts 314°
2026-05-05 19:15 39.38407 20.29836 8780 ft 286 kts 293°
2026-05-05 19:16 39.38861 20.27398 8508 ft 276 kts 274°
2026-05-05 19:16 39.38680 20.24900 8384 ft 282 kts 255°
2026-05-05 19:16 39.37870 20.22590 8261 ft 282 kts 236°
2026-05-05 19:16 39.36563 20.20690 7910 ft 283 kts 225°
2026-05-05 19:17 39.35226 20.18851 7482 ft 279 kts 229°
2026-05-05 19:17 39.34029 20.16975 7114 ft 270 kts 232°
2026-05-05 19:17 39.32973 20.15020 6614 ft 264 kts 240°
2026-05-05 19:17 39.32445 20.12710 5764 ft 272 kts 267°
2026-05-05 19:18 39.32753 20.10327 5144 ft 271 kts 292°
2026-05-05 19:18 39.33807 20.08367 4780 ft 258 kts 313°
2026-05-05 19:18 39.35080 20.06865 4569 ft 237 kts 319°
2026-05-05 19:18 39.36282 20.05538 4406 ft 218 kts 318°
2026-05-05 19:19 39.37365 20.04282 4263 ft 201 kts 316°
2026-05-05 19:19 39.38344 20.03070 4026 ft 191 kts 314°
2026-05-05 19:19 39.39288 20.01842 3880 ft 195 kts 313°
2026-05-05 19:19 39.40232 20.00581 3874 ft 194 kts 313°
2026-05-05 19:20 39.41174 19.99313 3743 ft 196 kts 313°
2026-05-05 19:20 39.42142 19.98084 3321 ft 197 kts 321°
2026-05-05 19:20 39.43350 19.97331 2948 ft 193 kts 344°
2026-05-05 19:20 39.44652 19.96902 2572 ft 195 kts 345°
2026-05-05 19:21 39.45965 19.96447 2097 ft 194 kts 344°
2026-05-05 19:21 39.47223 19.95990 1776 ft 178 kts 343°
2026-05-05 19:21 39.48334 19.95575 1704 ft 155 kts 343°
2026-05-05 19:21 39.49340 19.95196 1699 ft 148 kts 342°
2026-05-05 19:22 39.50327 19.94821 1701 ft 148 kts 342°
2026-05-05 19:22 39.51310 19.94447 1698 ft 147 kts 343°
2026-05-05 19:22 39.52305 19.94074 1528 ft 153 kts 343°
2026-05-05 19:22 39.53313 19.93715 1220 ft 146 kts 343°
2026-05-05 19:23 39.54291 19.93312 981 ft 148 kts 339°
2026-05-05 19:23 39.55202 19.92759 728 ft 147 kts 334°
2026-05-05 19:23 39.56162 19.92291 560 ft 145 kts 345°
2026-05-05 19:23 39.57138 19.91997 400 ft 145 kts 347°
2026-05-05 19:24 39.58124 19.91745 219 ft 143 kts 349°
2026-05-05 19:24 39.59116 19.91495 84 ft 145 kts 348°
2026-05-05 19:24 39.60030 19.91247 16 ft 105 kts 349°
2026-05-05 19:24 39.60459 19.91153 14 ft 29 kts
2026-05-05 19:25 39.60576 19.91192 14 ft 7 kts 23°
2026-05-05 19:25 39.60601 19.91210 16 ft 2 kts 31°
2026-05-05 19:25 39.60618 19.91231 14 ft 4 kts 48°
2026-05-05 19:25 39.60641 19.91261 14 ft 6 kts 37°
2026-05-05 19:26 39.60655 19.91302 14 ft 6 kts 70°
2026-05-05 19:26 39.60665 19.91353 14 ft 0 kts 77°
2026-05-05 19:26 39.60666 19.91357 14 ft 0 kts 77°